Torna al catalogo

CZ-6A DEB

AttivoPO
NORAD 55205·DEBRIS·🇨🇳 China

Lanciato Nov 11, 2022 da Taiyuan Satellite Launch Center

Loading…

Prossimi Passaggi (prossime 24 ore)

TLE

AggiornatoSource: Space-Track

Epoca: Sep 13, 2026, 22:08 UTC

1 55205U 22151VW  26256.92256462  .00006014  00000-0  10020-2 0  9991
2 55205  98.6116 324.0616 0068066   6.6942 353.5155 14.68880337198042

Traccia CZ-6A DEB in tempo reale con AllMySat

Download on the App Store